JJA1801 RKSI-ROAH

Flight info

Callsign JJA1801
Flight time 1h 50m
Altitude 36000
Route BOPTA Z51 BEDES Y711 KIDOS Z81 CJU Y572 RUGMA Y579 ONC Y525 IHEYA
Aircraft B38M/M-SDE2E3FGHIJ3J4J7M3P2RWY/LB1D1

Departure

Time 2026-05-08 04:30
Airport Incheon International Airport (RKSI)

Arrival

Time 2026-05-08 06:20
Airport Naha International Airport (ROAH)
Time Latitude Longitude Altitude Speed Heading
2026-05-08 04:15 37.45433 126.45134 62 ft 0 kts 192°
2026-05-08 04:18 37.45435 126.45134 62 ft 2 kts 192°
2026-05-08 04:18 37.45453 126.45139 34 ft 3 kts 189°
2026-05-08 04:18 37.45473 126.45142 34 ft 3 kts 186°
2026-05-08 04:19 37.45493 126.45144 34 ft 3 kts 181°
2026-05-08 04:19 37.45514 126.45143 34 ft 3 kts 171°
2026-05-08 04:19 37.45532 126.45137 34 ft 3 kts 147°
2026-05-08 04:19 37.45542 126.45124 34 ft 2 kts 98°
2026-05-08 04:20 37.45542 126.45120 34 ft 1 kts 91°
2026-05-08 04:23 37.45542 126.45128 34 ft 3 kts 91°
2026-05-08 04:23 37.45562 126.45151 34 ft 6 kts 32°
2026-05-08 04:23 37.45619 126.45214 34 ft 16 kts 15°
2026-05-08 04:23 37.45656 126.45109 34 ft 19 kts 234°
2026-05-08 04:24 37.45578 126.44976 34 ft 20 kts 234°
2026-05-08 04:24 37.45494 126.44826 34 ft 22 kts 236°
2026-05-08 04:24 37.45406 126.44669 34 ft 22 kts 235°
2026-05-08 04:24 37.45317 126.44510 34 ft 23 kts 235°
2026-05-08 04:25 37.45222 126.44343 34 ft 24 kts 234°
2026-05-08 04:25 37.45134 126.44185 35 ft 22 kts 236°
2026-05-08 04:25 37.45042 126.44030 35 ft 22 kts 221°
2026-05-08 04:25 37.44920 126.44073 35 ft 20 kts 144°
2026-05-08 04:26 37.44801 126.44179 35 ft 22 kts 145°
2026-05-08 04:26 37.44673 126.44294 35 ft 23 kts 144°
2026-05-08 04:26 37.44554 126.44398 34 ft 19 kts 147°
2026-05-08 04:26 37.44464 126.44369 34 ft 15 kts 237°
2026-05-08 04:27 37.44418 126.44284 34 ft 3 kts 235°
2026-05-08 04:27 37.44413 126.44276 34 ft 0 kts 235°
2026-05-08 04:27 37.44413 126.44275 34 ft 1 kts 235°
2026-05-08 04:28 37.44412 126.44273 34 ft 2 kts 235°
2026-05-08 04:28 37.44407 126.44265 34 ft 3 kts 235°
2026-05-08 04:28 37.44382 126.44219 33 ft 10 kts 235°
2026-05-08 04:28 37.44393 126.44124 33 ft 7 kts 319°
2026-05-08 04:29 37.44403 126.44114 33 ft 2 kts 324°
2026-05-08 04:29 37.44561 126.43973 35 ft 69 kts 325°
2026-05-08 04:29 37.45179 126.43424 34 ft 146 kts 322°
2026-05-08 04:29 37.46095 126.42543 470 ft 180 kts 320°
2026-05-08 04:30 37.47138 126.41559 1473 ft 187 kts 316°
2026-05-08 04:30 37.48035 126.40368 2415 ft 197 kts 307°
2026-05-08 04:30 37.48951 126.38941 3052 ft 221 kts 307°
2026-05-08 04:30 37.49862 126.37377 4130 ft 220 kts 296°
2026-05-08 04:31 37.50230 126.35514 5225 ft 221 kts 275°
2026-05-08 04:31 37.50335 126.33558 6186 ft 231 kts 275°
2026-05-08 04:31 37.50433 126.31467 6915 ft 246 kts 275°
2026-05-08 04:31 37.50513 126.29320 7973 ft 245 kts 274°
2026-05-08 04:32 37.50585 126.27158 8983 ft 249 kts 274°
2026-05-08 04:32 37.50649 126.24975 10022 ft 250 kts 274°
2026-05-08 04:32 37.50710 126.22738 10697 ft 264 kts 274°
2026-05-08 04:32 37.50533 126.20349 11109 ft 288 kts 256°
2026-05-08 04:33 37.49475 126.18089 11641 ft 315 kts 231°
2026-05-08 04:33 37.47584 126.16532 12303 ft 341 kts 205°
2026-05-08 04:33 37.45176 126.16135 13208 ft 359 kts 183°
2026-05-08 04:33 37.42664 126.16696 13942 ft 374 kts 170°
2026-05-08 04:34 37.40191 126.17848 14657 ft 384 kts 161°
2026-05-08 04:34 37.37868 126.19486 15364 ft 394 kts 148°
2026-05-08 04:34 37.35764 126.21743 16064 ft 401 kts 141°
2026-05-08 04:34 37.33752 126.24218 16730 ft 407 kts 138°
2026-05-08 04:35 37.31785 126.26814 17392 ft 412 kts 137°
2026-05-08 04:35 37.29842 126.29486 18061 ft 416 kts 136°
2026-05-08 04:35 37.27902 126.32199 18642 ft 420 kts 136°
2026-05-08 04:35 37.25947 126.34963 19210 ft 423 kts 136°
2026-05-08 04:36 37.23990 126.37742 19779 ft 426 kts 136°
2026-05-08 04:36 37.22027 126.40536 20351 ft 429 kts 136°
2026-05-08 04:36 37.19920 126.43170 20874 ft 423 kts 150°
2026-05-08 04:36 37.17393 126.44951 21390 ft 413 kts 165°
2026-05-08 04:37 37.14909 126.46246 21815 ft 417 kts 166°
2026-05-08 04:37 37.12220 126.47594 22408 ft 417 kts 167°
2026-05-08 04:37 37.09508 126.48920 22924 ft 420 kts 167°
2026-05-08 04:37 37.06770 126.50236 23447 ft 423 kts 168°
2026-05-08 04:38 37.04006 126.51514 23892 ft 421 kts 173°
2026-05-08 04:38 37.01182 126.52434 24293 ft 421 kts 175°
2026-05-08 04:38 36.98341 126.53365 24688 ft 424 kts 174°
2026-05-08 04:38 36.95478 126.54325 25112 ft 427 kts 174°
2026-05-08 04:39 36.92637 126.55289 25500 ft 430 kts 174°
2026-05-08 04:39 36.89746 126.56273 25934 ft 432 kts 174°
2026-05-08 04:39 36.86840 126.57243 26319 ft 434 kts 175°
2026-05-08 04:39 36.83910 126.58204 26699 ft 436 kts 175°
2026-05-08 04:40 36.80964 126.59173 27071 ft 439 kts 175°
2026-05-08 04:40 36.78010 126.60144 27483 ft 440 kts 175°
2026-05-08 04:40 36.75035 126.61121 27879 ft 443 kts 175°
2026-05-08 04:40 36.72041 126.62124 28225 ft 446 kts 175°
2026-05-08 04:41 36.69043 126.63134 28567 ft 448 kts 175°
2026-05-08 04:41 36.66030 126.64146 28915 ft 450 kts 175°
2026-05-08 04:41 36.62988 126.65167 29290 ft 452 kts 175°
2026-05-08 04:41 36.59939 126.66188 29625 ft 455 kts 175°
2026-05-08 04:42 36.56874 126.67216 29951 ft 457 kts 175°
2026-05-08 04:42 36.53799 126.68244 30261 ft 459 kts 175°
2026-05-08 04:42 36.50706 126.69278 30547 ft 461 kts 175°
2026-05-08 04:42 36.47607 126.70313 30831 ft 463 kts 175°
2026-05-08 04:43 36.44528 126.71342 31077 ft 465 kts 175°
2026-05-08 04:43 36.41354 126.72401 31378 ft 467 kts 175°
2026-05-08 04:43 36.38251 126.73440 31645 ft 469 kts 175°
2026-05-08 04:43 36.35092 126.74508 31937 ft 471 kts 175°
2026-05-08 04:44 36.31920 126.75578 32202 ft 473 kts 175°
2026-05-08 04:44 36.28742 126.76649 32566 ft 473 kts 175°
2026-05-08 04:44 36.25567 126.77717 32911 ft 473 kts 175°
2026-05-08 04:44 36.22394 126.78784 33278 ft 472 kts 175°
2026-05-08 04:45 36.19230 126.79848 33632 ft 471 kts 175°
2026-05-08 04:45 36.16064 126.80778 33979 ft 459 kts 184°
2026-05-08 04:45 36.12957 126.80807 34346 ft 439 kts 194°
2026-05-08 04:45 36.09902 126.80557 34618 ft 441 kts 194°
2026-05-08 04:46 36.06847 126.80279 34892 ft 439 kts 194°
2026-05-08 04:46 36.03800 126.79976 35204 ft 438 kts 195°
2026-05-08 04:46 36.00766 126.79658 35488 ft 437 kts 195°
2026-05-08 04:46 35.97734 126.79333 35764 ft 437 kts 195°
2026-05-08 04:47 35.94711 126.79008 36022 ft 436 kts 195°
2026-05-08 04:47 35.91679 126.78679 36090 ft 437 kts 195°
2026-05-08 04:47 35.85687 126.78030 36082 ft 434 kts 195°
2026-05-08 04:48 35.79745 126.77386 36075 ft 434 kts 194°
2026-05-08 04:48 35.73722 126.76735 36080 ft 434 kts 194°
2026-05-08 04:49 35.67685 126.76083 36080 ft 435 kts 194°
2026-05-08 04:49 35.61699 126.75438 36085 ft 435 kts 194°
2026-05-08 04:50 35.55660 126.74789 36087 ft 435 kts 194°
2026-05-08 04:50 35.49626 126.74141 36091 ft 436 kts 194°
2026-05-08 04:51 35.43585 126.73494 36098 ft 436 kts 194°
2026-05-08 04:51 35.37571 126.72850 36097 ft 437 kts 193°
2026-05-08 04:52 35.31522 126.72204 36081 ft 435 kts 193°
2026-05-08 04:52 35.25479 126.71559 36092 ft 436 kts 193°
2026-05-08 04:53 35.19428 126.70915 36098 ft 437 kts 193°
2026-05-08 04:53 35.13366 126.70270 36095 ft 437 kts 193°
2026-05-08 04:54 35.07303 126.69626 36094 ft 438 kts 193°
2026-05-08 04:54 35.01231 126.68981 36095 ft 439 kts 193°
2026-05-08 04:55 34.95147 126.68336 36096 ft 439 kts 192°
2026-05-08 04:55 34.89062 126.67692 36097 ft 439 kts 192°
2026-05-08 04:56 34.83008 126.67053 36098 ft 440 kts 192°
2026-05-08 04:56 34.79960 126.66733 36545 ft 440 kts 196°
2026-05-08 04:56 34.76865 126.66410 36364 ft 440 kts 198°
2026-05-08 04:57 34.73851 126.66088 36134 ft 440 kts 198°
2026-05-08 04:57 34.70810 126.65767 36079 ft 439 kts 198°
2026-05-08 04:57 34.64693 126.65122 36090 ft 442 kts 197°
2026-05-08 04:58 34.58566 126.64479 36095 ft 441 kts 197°
2026-05-08 04:58 34.52455 126.63839 36100 ft 441 kts 197°
2026-05-08 04:59 34.46338 126.63198 36101 ft 440 kts 197°
2026-05-08 04:59 34.40232 126.62560 36107 ft 440 kts 197°
2026-05-08 05:00 34.34118 126.61922 36095 ft 441 kts 197°
2026-05-08 05:00 34.29035 126.61393 36098 ft 441 kts 197°
2026-05-08 05:01 34.21930 126.60651 36099 ft 441 kts 197°
2026-05-08 05:01 34.15822 126.60014 36099 ft 440 kts 197°
2026-05-08 05:02 34.10711 126.59482 36106 ft 440 kts 197°
2026-05-08 05:02 34.04609 126.58848 36108 ft 440 kts 197°
2026-05-08 05:03 33.98499 126.58213 36114 ft 440 kts 197°
2026-05-08 05:03 33.92392 126.57580 36116 ft 440 kts 197°
2026-05-08 05:04 33.86301 126.56949 36120 ft 440 kts 197°
2026-05-08 05:04 33.83477 126.56812 36119 ft 452 kts 187°
2026-05-08 05:04 33.80616 126.57186 36138 ft 457 kts 186°
2026-05-08 05:05 33.74290 126.57954 36139 ft 457 kts 185°
2026-05-08 05:05 33.67966 126.58742 36144 ft 457 kts 185°
2026-05-08 05:06 33.61646 126.59529 36145 ft 456 kts 185°
2026-05-08 05:06 33.55621 126.60279 36150 ft 457 kts 185°
2026-05-08 05:07 33.49299 126.61066 36146 ft 457 kts 185°
2026-05-08 05:07 33.42978 126.61851 36130 ft 457 kts 185°
2026-05-08 05:08 33.36658 126.63131 36125 ft 475 kts 172°
2026-05-08 05:08 33.30368 126.65569 36122 ft 475 kts 173°
2026-05-08 05:09 33.24069 126.68006 36117 ft 476 kts 173°
2026-05-08 05:09 33.17766 126.70449 36114 ft 476 kts 173°
2026-05-08 05:10 33.08310 126.74107 36107 ft 477 kts 173°
2026-05-08 05:11 33.01988 126.76548 36104 ft 477 kts 173°
2026-05-08 05:11 32.95668 126.78999 36105 ft 478 kts 173°
2026-05-08 05:12 32.89334 126.81450 36104 ft 479 kts 172°
2026-05-08 05:12 32.82997 126.83899 36107 ft 479 kts 172°
2026-05-08 05:13 32.76701 126.86329 36110 ft 478 kts 172°
2026-05-08 05:13 32.70372 126.88768 36108 ft 478 kts 172°
2026-05-08 05:14 32.64043 126.91204 36108 ft 478 kts 172°
2026-05-08 05:14 32.57711 126.93637 36102 ft 477 kts 172°
2026-05-08 05:15 32.51388 126.96058 36106 ft 476 kts 173°
2026-05-08 05:15 32.45030 126.98200 36103 ft 475 kts 174°
2026-05-08 05:16 32.38678 127.00354 36104 ft 475 kts 174°
2026-05-08 05:16 32.32319 127.02511 36104 ft 475 kts 174°
2026-05-08 05:17 32.25958 127.04658 36106 ft 475 kts 174°
2026-05-08 05:17 32.19596 127.06798 36106 ft 476 kts 174°
2026-05-08 05:18 32.13271 127.08923 36104 ft 476 kts 174°
2026-05-08 05:18 32.06909 127.11057 36104 ft 475 kts 174°
2026-05-08 05:19 32.00543 127.13189 36101 ft 475 kts 174°
2026-05-08 05:19 31.94192 127.15312 36099 ft 474 kts 174°
2026-05-08 05:20 31.87841 127.17432 36097 ft 474 kts 173°
2026-05-08 05:20 31.81503 127.19544 36099 ft 473 kts 173°
2026-05-08 05:21 31.75170 127.21652 36100 ft 472 kts 173°
2026-05-08 05:21 31.68848 127.23754 36094 ft 472 kts 173°
2026-05-08 05:22 31.62526 127.25852 36096 ft 472 kts 173°
2026-05-08 05:22 31.56209 127.27946 36093 ft 471 kts 173°
2026-05-08 05:23 31.49898 127.30035 36095 ft 471 kts 173°
2026-05-08 05:23 31.43622 127.32109 36089 ft 471 kts 173°
2026-05-08 05:24 31.37313 127.34191 36089 ft 471 kts 173°
2026-05-08 05:24 31.31005 127.36271 36092 ft 471 kts 173°
2026-05-08 05:25 31.24698 127.38354 36088 ft 471 kts 173°
2026-05-08 05:25 31.18400 127.40453 36090 ft 471 kts 173°
2026-05-08 05:26 31.12096 127.42548 36089 ft 471 kts 173°
2026-05-08 05:26 31.05799 127.44639 36086 ft 470 kts 173°
2026-05-08 05:27 30.99507 127.46725 36086 ft 470 kts 173°
2026-05-08 05:27 30.93223 127.48805 36084 ft 469 kts 173°
2026-05-08 05:28 30.86937 127.50883 36079 ft 469 kts 173°
2026-05-08 05:28 30.80665 127.52954 36080 ft 469 kts 173°
2026-05-08 05:29 30.74392 127.55022 36075 ft 468 kts 173°
2026-05-08 05:29 30.68123 127.57086 36079 ft 468 kts 173°
2026-05-08 05:30 30.61856 127.59147 36078 ft 468 kts 173°
2026-05-08 05:30 30.55635 127.61190 36082 ft 468 kts 173°
2026-05-08 05:31 30.49372 127.63244 36078 ft 467 kts 173°
2026-05-08 05:31 30.43115 127.65293 36074 ft 467 kts 173°
2026-05-08 05:32 30.36858 127.67340 36074 ft 467 kts 173°
2026-05-08 05:32 30.30600 127.69384 36072 ft 467 kts 173°
2026-05-08 05:33 30.24354 127.71422 36069 ft 467 kts 173°
2026-05-08 05:33 30.18103 127.73459 36068 ft 467 kts 173°
2026-05-08 05:34 30.11850 127.75493 36071 ft 467 kts 173°
2026-05-08 05:34 30.05603 127.77524 36074 ft 467 kts 173°
2026-05-08 05:35 29.99365 127.79548 36063 ft 466 kts 173°
2026-05-08 05:35 29.93116 127.81574 36072 ft 466 kts 173°
2026-05-08 05:36 29.86871 127.83622 36065 ft 469 kts 170°
2026-05-08 05:36 29.81893 127.85544 36071 ft 469 kts 170°
2026-05-08 05:37 29.75743 127.87874 36066 ft 468 kts 171°
2026-05-08 05:37 29.69545 127.90213 36064 ft 468 kts 171°
2026-05-08 05:38 29.63359 127.92545 36064 ft 468 kts 171°
2026-05-08 05:38 29.57172 127.94873 36064 ft 467 kts 171°
2026-05-08 05:39 29.50991 127.97205 36062 ft 467 kts 171°
2026-05-08 05:39 29.44822 127.99538 36060 ft 467 kts 171°
2026-05-08 05:40 29.38645 128.01871 36062 ft 467 kts 171°
2026-05-08 05:40 29.32506 128.04186 36060 ft 468 kts 171°
2026-05-08 05:41 29.26323 128.06515 36061 ft 468 kts 171°
2026-05-08 05:41 29.20136 128.08843 36059 ft 468 kts 171°
2026-05-08 05:42 29.13931 128.11174 36062 ft 469 kts 171°
2026-05-08 05:42 29.07723 128.13504 36062 ft 470 kts 170°
2026-05-08 05:43 29.01489 128.15789 36064 ft 470 kts 172°
2026-05-08 05:43 28.95218 128.17953 36061 ft 471 kts 171°
2026-05-08 05:44 28.88930 128.20135 36056 ft 472 kts 171°
2026-05-08 05:44 28.82628 128.22320 36062 ft 474 kts 171°
2026-05-08 05:45 28.76317 128.24506 36057 ft 474 kts 171°
2026-05-08 05:45 28.70031 128.26681 36059 ft 475 kts 171°
2026-05-08 05:46 28.63699 128.28868 36056 ft 476 kts 171°
2026-05-08 05:46 28.57354 128.31057 36052 ft 476 kts 171°
2026-05-08 05:47 28.51011 128.33243 36055 ft 477 kts 171°
2026-05-08 05:47 28.44662 128.35428 36057 ft 477 kts 171°
2026-05-08 05:48 28.38296 128.37616 36048 ft 478 kts 171°
2026-05-08 05:48 28.31930 128.39801 36058 ft 478 kts 171°
2026-05-08 05:49 28.25563 128.41984 36055 ft 478 kts 171°
2026-05-08 05:49 28.20270 128.43797 36047 ft 478 kts 171°
2026-05-08 05:50 28.13903 128.45970 36053 ft 478 kts 171°
2026-05-08 05:50 28.07540 128.48139 36052 ft 477 kts 171°
2026-05-08 05:51 28.01190 128.50302 36044 ft 477 kts 171°
2026-05-08 05:51 27.94835 128.52464 36046 ft 476 kts 171°
2026-05-08 05:52 27.88522 128.54609 35767 ft 469 kts 171°
2026-05-08 05:52 27.85390 128.55672 35056 ft 470 kts 171°
2026-05-08 05:52 27.82270 128.56730 34475 ft 468 kts 171°
2026-05-08 05:52 27.79157 128.57785 33879 ft 465 kts 171°
2026-05-08 05:53 27.76060 128.58834 33141 ft 465 kts 171°
2026-05-08 05:53 27.72956 128.59885 32307 ft 468 kts 171°
2026-05-08 05:53 27.69823 128.60945 31459 ft 472 kts 171°
2026-05-08 05:53 27.66666 128.62012 30583 ft 476 kts 170°
2026-05-08 05:54 27.63479 128.63089 29640 ft 480 kts 170°
2026-05-08 05:54 27.60267 128.64174 28664 ft 483 kts 169°
2026-05-08 05:54 27.57040 128.65263 27731 ft 485 kts 169°
2026-05-08 05:54 27.53799 128.66356 26749 ft 487 kts 169°
2026-05-08 05:55 27.50573 128.67336 25803 ft 483 kts 176°
2026-05-08 05:55 27.47277 128.67393 24919 ft 468 kts 195°
2026-05-08 05:55 27.44254 128.66276 24228 ft 451 kts 212°
2026-05-08 05:55 27.41694 128.64328 23531 ft 440 kts 224°
2026-05-08 05:56 27.39645 128.61822 22777 ft 432 kts 235°
2026-05-08 05:56 27.37910 128.59082 22042 ft 428 kts 238°
2026-05-08 05:56 27.36286 128.56294 21401 ft 423 kts 239°
2026-05-08 05:56 27.34736 128.53497 20733 ft 420 kts 240°
2026-05-08 05:57 27.33224 128.50703 20097 ft 416 kts 240°
2026-05-08 05:57 27.31734 128.47916 19445 ft 412 kts 240°
2026-05-08 05:57 27.30272 128.45160 18862 ft 409 kts 240°
2026-05-08 05:57 27.28824 128.42421 18241 ft 406 kts 240°
2026-05-08 05:58 27.27387 128.39703 17605 ft 402 kts 240°
2026-05-08 05:58 27.25966 128.37015 16973 ft 398 kts 240°
2026-05-08 05:58 27.24576 128.34388 16357 ft 394 kts 240°
2026-05-08 05:58 27.23182 128.31755 15750 ft 391 kts 239°
2026-05-08 05:59 27.21801 128.29147 15163 ft 387 kts 239°
2026-05-08 05:59 27.20427 128.26554 14604 ft 384 kts 239°
2026-05-08 05:59 27.19068 128.23992 14056 ft 380 kts 239°
2026-05-08 05:59 27.17722 128.21454 13485 ft 376 kts 239°
2026-05-08 06:00 27.16388 128.18939 12879 ft 374 kts 239°
2026-05-08 06:00 27.15061 128.16442 12309 ft 371 kts 238°
2026-05-08 06:00 27.13742 128.13959 11759 ft 368 kts 238°
2026-05-08 06:00 27.12434 128.11498 11241 ft 366 kts 238°
2026-05-08 06:01 27.11140 128.09068 11098 ft 363 kts 238°
2026-05-08 06:01 27.09839 128.06622 11014 ft 365 kts 238°
2026-05-08 06:01 27.08535 128.04175 10994 ft 365 kts 238°
2026-05-08 06:01 27.07246 128.01755 11005 ft 366 kts 238°
2026-05-08 06:02 27.05936 127.99298 11010 ft 366 kts 238°
2026-05-08 06:02 27.04625 127.96842 11020 ft 367 kts 238°
2026-05-08 06:02 27.03313 127.94381 11033 ft 368 kts 238°
2026-05-08 06:02 27.01828 127.92065 11020 ft 367 kts 224°
2026-05-08 06:03 26.99663 127.90573 11021 ft 370 kts 200°
2026-05-08 06:03 26.97156 127.90237 11043 ft 360 kts 179°
2026-05-08 06:03 26.94716 127.90408 11051 ft 342 kts 181°
2026-05-08 06:03 26.92393 127.90507 11059 ft 326 kts 181°
2026-05-08 06:04 26.90176 127.90588 11055 ft 311 kts 182°
2026-05-08 06:04 26.88061 127.90659 11055 ft 296 kts 182°
2026-05-08 06:04 26.86073 127.90720 11056 ft 283 kts 182°
2026-05-08 06:04 26.84146 127.90778 11056 ft 274 kts 182°
2026-05-08 06:05 26.82247 127.90835 11053 ft 273 kts 182°
2026-05-08 06:05 26.80344 127.90892 11042 ft 273 kts 182°
2026-05-08 06:05 26.78445 127.90948 11045 ft 273 kts 182°
2026-05-08 06:05 26.76545 127.91005 11031 ft 273 kts 182°
2026-05-08 06:06 26.74639 127.91062 11035 ft 273 kts 182°
2026-05-08 06:06 26.72736 127.91119 11034 ft 274 kts 182°
2026-05-08 06:06 26.70832 127.91175 11033 ft 273 kts 182°
2026-05-08 06:06 26.68931 127.91232 11031 ft 273 kts 182°
2026-05-08 06:07 26.67028 127.91288 11067 ft 274 kts 182°
2026-05-08 06:07 26.65116 127.91344 11101 ft 276 kts 182°
2026-05-08 06:07 26.63195 127.91401 11021 ft 276 kts 182°
2026-05-08 06:07 26.61285 127.91458 10945 ft 273 kts 182°
2026-05-08 06:08 26.59382 127.91515 10973 ft 274 kts 182°
2026-05-08 06:08 26.57470 127.91572 10980 ft 275 kts 182°
2026-05-08 06:08 26.55579 127.91628 10984 ft 275 kts 182°
2026-05-08 06:08 26.53636 127.91685 10974 ft 276 kts 182°
2026-05-08 06:09 26.51744 127.91741 10975 ft 276 kts 182°
2026-05-08 06:09 26.49821 127.91799 11007 ft 276 kts 182°
2026-05-08 06:09 26.47902 127.91855 11012 ft 276 kts 182°
2026-05-08 06:09 26.45976 127.91912 10995 ft 277 kts 182°
2026-05-08 06:10 26.44048 127.91969 11003 ft 278 kts 182°
2026-05-08 06:10 26.42122 127.92026 10934 ft 276 kts 182°
2026-05-08 06:10 26.40198 127.92070 10948 ft 276 kts 186°
2026-05-08 06:10 26.38391 127.91564 10972 ft 269 kts 207°
2026-05-08 06:11 26.36680 127.90716 10987 ft 271 kts 206°
2026-05-08 06:11 26.34964 127.89866 10962 ft 268 kts 207°
2026-05-08 06:11 26.33262 127.89013 10608 ft 269 kts 207°
2026-05-08 06:11 26.31560 127.88153 10302 ft 267 kts 207°
2026-05-08 06:12 26.29872 127.87295 9971 ft 266 kts 207°
2026-05-08 06:12 26.28189 127.86438 9611 ft 266 kts 207°
2026-05-08 06:12 26.26512 127.85584 9264 ft 265 kts 207°
2026-05-08 06:12 26.24838 127.84730 8939 ft 264 kts 207°
2026-05-08 06:13 26.23168 127.83879 8638 ft 263 kts 207°
2026-05-08 06:13 26.21505 127.83031 8328 ft 262 kts 207°
2026-05-08 06:13 26.19852 127.82188 8025 ft 262 kts 207°
2026-05-08 06:13 26.18201 127.81347 7793 ft 259 kts 206°
2026-05-08 06:14 26.16595 127.80527 7491 ft 258 kts 206°
2026-05-08 06:14 26.14957 127.79693 7158 ft 259 kts 206°
2026-05-08 06:14 26.13315 127.78857 6835 ft 259 kts 206°
2026-05-08 06:14 26.11680 127.78024 6530 ft 258 kts 206°
2026-05-08 06:15 26.10112 127.77226 6230 ft 257 kts 206°
2026-05-08 06:15 26.08488 127.76400 5908 ft 257 kts 206°
2026-05-08 06:15 26.06875 127.75563 5514 ft 254 kts 210°
2026-05-08 06:15 26.05608 127.74243 5070 ft 250 kts 239°
2026-05-08 06:16 26.05077 127.72418 4568 ft 251 kts 264°
2026-05-08 06:16 26.04982 127.70473 4070 ft 252 kts 266°
2026-05-08 06:16 26.04894 127.68546 3796 ft 243 kts 266°
2026-05-08 06:16 26.04838 127.66733 3740 ft 225 kts 273°
2026-05-08 06:17 26.06528 127.64108 3057 ft 220 kts 339°
2026-05-08 06:17 26.08027 127.63828 2465 ft 220 kts 357°
2026-05-08 06:17 26.09550 127.63753 1911 ft 217 kts 357°
2026-05-08 06:18 26.11046 127.63675 1412 ft 212 kts 358°
2026-05-08 06:18 26.12474 127.63607 1094 ft 199 kts 358°
2026-05-08 06:18 26.13779 127.63547 889 ft 183 kts 358°
2026-05-08 06:18 26.15014 127.63487 628 ft 166 kts 358°
2026-05-08 06:19 26.16104 127.63433 393 ft 152 kts 356°
2026-05-08 06:19 26.17100 127.63392 204 ft 138 kts 359°
2026-05-08 06:19 26.18058 127.63359 52 ft 136 kts 357°
2026-05-08 06:19 26.18895 127.63315 29 ft 93 kts 356°
2026-05-08 06:20 26.19316 127.63302 31 ft 37 kts
2026-05-08 06:20 26.19469 127.63354 32 ft 18 kts 26°
2026-05-08 06:20 26.19553 127.63401 32 ft 14 kts 27°
2026-05-08 06:20 26.19650 127.63456 31 ft 17 kts 26°
2026-05-08 06:21 26.19764 127.63459 31 ft 17 kts 358°
2026-05-08 06:21 26.19879 127.63455 31 ft 15 kts 358°
2026-05-08 06:21 26.19990 127.63449 31 ft 17 kts 356°
2026-05-08 06:21 26.20113 127.63442 31 ft 19 kts 358°
2026-05-08 06:22 26.20221 127.63497 31 ft 18 kts 75°
2026-05-08 06:22 26.20217 127.63640 31 ft 19 kts 87°
2026-05-08 06:22 26.20228 127.63792 31 ft 20 kts 86°
2026-05-08 06:22 26.20233 127.63956 31 ft 22 kts 87°
2026-05-08 06:23 26.20240 127.64129 31 ft 23 kts 87°
2026-05-08 06:23 26.20236 127.64290 31 ft 19 kts 116°
2026-05-08 06:23 26.20143 127.64327 31 ft 9 kts 181°
2026-05-08 06:23 26.20112 127.64327 31 ft 5 kts 177°
2026-05-08 06:24 26.20061 127.64330 31 ft 10 kts 177°
2026-05-08 06:24 26.19998 127.64305 31 ft 7 kts 200°
2026-05-08 06:24 26.19970 127.64338 30 ft 6 kts 72°
2026-05-08 06:24 26.19994 127.64350 30 ft 5 kts 353°
2026-05-08 06:25 26.20036 127.64344 30 ft 7 kts 353°
2026-05-08 06:25 26.20097 127.64336 31 ft 11 kts 353°
2026-05-08 06:25 26.20189 127.64327 31 ft 16 kts 358°
2026-05-08 06:25 26.20315 127.64322 31 ft 21 kts 358°
2026-05-08 06:26 26.20461 127.64314 31 ft 21 kts 356°
2026-05-08 06:26 26.20601 127.64341 31 ft 19 kts 49°
2026-05-08 06:26 26.20618 127.64487 31 ft 20 kts 89°
2026-05-08 06:26 26.20622 127.64652 31 ft 23 kts 86°
2026-05-08 06:27 26.20692 127.64742 31 ft 15 kts 359°
2026-05-08 06:27 26.20804 127.64734 31 ft 17 kts 356°
2026-05-08 06:27 26.20905 127.64782 31 ft 17 kts 77°
2026-05-08 06:27 26.20900 127.64877 31 ft 4 kts 140°
2026-05-08 06:28 26.20866 127.64895 31 ft 7 kts 152°
2026-05-08 06:28 26.20843 127.64909 31 ft 0 kts 151°